Home > Weather > Makati > Past weeks

Flag for Philippines Weather for the Past 2 Weeks in Makati, Philippines

Now
95 °F

Passing clouds.


Feels Like: 105 °F
Forecast: 81 / 95 °F
Wind: 8 mph from Southeast

Location: National Airport

Current Time: Apr 30, 2016 at 11:47:43 AM

Latest Report: Apr 30, 2016 at 11:00 AM


Visibility: N/A

Pressure: 29.83 "Hg

Humidity: 50%

Dew Point: 73 °F

Location of MakatiLocation

Historic Weather in Makati — Graph

°F

Makati Temperature Yesterday

Maximum temperature yesterday: 95 °F (at 2:00 PM)
Minimum temperature yesterday: 82 °F (at 3:00 AM)
Average temperature yesterday: 87 °F

High & Low Weather Summary for the Past Weeks

 TemperatureHumidityPressure
High97 °F (Apr 15, 12:00 PM)100% (Apr 20, 12:00 AM)29.98 "Hg (Apr 20, 12:00 AM)
Low79 °F (Apr 23, 6:00 AM)18% (Apr 20, 1:00 AM)29.71 "Hg (Apr 27, 3:00 PM)
Average88 °F63%29.85 "Hg
* Reported Apr 15 9:00 AM — Apr 30 9:00 AM, Makati, Weather by CustomWeather, © 2016

Note: Actual official high and low records may vary slightly from our data, if they occured in-between our weather recording intervals... More about our weather records

Advertising

Makati Weather History for the Previous 24 Hours

Scroll right to see more
 ConditionsComfort  
Time TempWeatherWind HumidityBarometerVisibility
9:00 AM
Sat, Apr 30
90 °FPassing clouds.5 mph63%29.86 "HgN/A
8:00 AM88 °FPassing clouds.5 mph75%29.86 "HgN/A
7:00 AM86 °FPassing clouds.5 mph79%29.83 "HgN/A
6:00 AM82 °FScattered clouds.3 mph89%29.83 "HgN/A
5:00 AM84 °FPassing clouds.3 mph79%29.80 "HgN/A
4:00 AM84 °FPassing clouds.5 mph79%29.80 "HgN/A
3:00 AM84 °FPassing clouds.5 mph84%29.80 "HgN/A
2:00 AM84 °FPartly cloudy.3 mph89%29.83 "HgN/A
1:00 AM84 °FPassing clouds.3 mph84%29.83 "HgN/A
12:00 AM84 °FPartly cloudy.3 mph89%29.86 "Hg5 mi
11:00 PM
Fri, Apr 29
84 °FPassing clouds.2 mph94%29.86 "HgN/A
10:00 PM84 °FPassing clouds.No wind89%29.86 "HgN/A
9:00 PM84 °FPassing clouds.No wind94%29.86 "HgN/A
8:00 PM82 °FPassing clouds.No wind94%29.83 "HgN/A
7:00 PM84 °FThunderstorms. Overcast.8 mph89%29.83 "Hg6 mi
6:00 PM86 °FThunderstorms. Overcast.6 mph79%29.80 "Hg6 mi
5:00 PM90 °FThundershowers. Partly sunny.7 mph67%29.80 "HgN/A
4:00 PM91 °FScattered clouds.7 mph59%29.77 "HgN/A
3:00 PM93 °FScattered clouds.9 mph59%29.77 "HgN/A
2:00 PM95 °FPassing clouds.8 mph47%29.77 "HgN/A
1:00 PM91 °FPassing clouds.12 mph59%29.80 "HgN/A
12:00 PM91 °FPassing clouds.10 mph56%29.83 "HgN/A
11:00 AM91 °FPassing clouds.9 mph59%29.86 "HgN/A
Weather by CustomWeather, © 2016

See weather overviewHow to use our weather pages